Meath Environmental Platform

Observations

Time Sensor AQI SAQ Temp °C Hum % Pres Pa CO μg/m³ H₂S μg/m³ NO μg/m³ NO₂ μg/m³ O₃ μg/m³ SO₂ μg/m³ CO₂e PPM VOC PPM PM1 μg/m³ PM2.5 μg/m³ PM4 μg/m³ PM10 μg/m³ TPS µm
Tuesday 11 August 2026
05:33 Trim Market St 2 12.5 75 47,414 0.38 0 3.89 11.62 31.92 0 2.85 4.27 6.93
05:32 Trim Patrick St 1 11 82 38,460 0.38 1.35 4.03 23.51 5.56 0 3.71 7.19 7.9
05:31 Trim Patrick St 1 11 82 38,460 0.39 3.23 4.1 27.87 4.76 0 4.57 7.9 8.69
05:30 Trim Patrick St 1 11 81 38,460 0.38 3.52 4.13 25.71 8.09 0 4.57 7.92 8.71
05:29 Trim Patrick St 1 11 82 38,460 0.38 3.72 4.1 24.56 2.98 0 2.86 6.52 7.17
05:28 Trim Patrick St 1 11 81 38,460 0.39 6.2 4.07 40.15 14.48 0 4.57 8.62 9.48
05:27 Trim Patrick St 1 11.1 81 38,460 0.38 2.21 4.06 36.08 0 0 5.43 7.92 8.71
05:26 Trim Patrick St 1 11.1 82 38,460 0.38 1.2 4.06 23.4 4.52 0 4.57 8.6 9.46
05:25 Trim Patrick St 1 11.1 82 38,460 0.39 2.28 4.11 22 7.01 0 4.57 8.6 9.46
05:24 Trim Patrick St 1 11.1 82 38,460 0.38 1.69 4.16 32.11 0 0 4.57 7.91 8.7
05:23 Trim Market St 2 12.6 75 47,295 0.37 0 3.86 10.8 32.13 0 1.43 3.31 5.73
05:22 Trim Patrick St 1 11.1 82 38,460 0.38 0.87 4.18 23.39 4.16 0 5.43 7.91 8.7
05:22 Trim Market St 2 12.6 75 47,306 0.36 0 3.86 10.8 32.27 0 2.14 4.27 6.93
05:21 Trim Patrick St 1 11.1 82 38,460 0.39 1.87 4.16 19.88 8 0 4.57 7.91 8.7
05:20 Trim Patrick St 1 11.1 81 38,460 0.39 2.7 4.17 29.88 1.24 0 3.71 8.64 9.5
05:20 Trim Market St 2 12.6 75 47,318 0.37 0 3.86 11.57 32.47 0 2.85 4.27 8.73
05:19 Trim Patrick St 1 11.1 81 38,460 0.38 2.85 4.14 35.65 0 0 5.43 9.31 10.24
05:18 Trim Patrick St 1 11.1 82 38,460 0.39 2.41 4.16 28.66 2.34 0 4.57 7.91 8.7
05:18 Trim Market St 2 12.6 75 47,389 0.37 0 3.86 12.54 29.18 0 2.14 3.79 6.33
05:17 Trim Patrick St 1 11.1 82 38,460 0.39 1.48 4.16 19.89 7.83 0 4.57 7.91 8.7